TimeCDT,TemperatureF,Dew PointF,Humidity,Sea Level PressureIn,VisibilityMPH,Wind Direction,Wind SpeedMPH,Gust SpeedMPH,PrecipitationIn,Events,Conditions,WindDirDegrees,DateUTC
12:14 AM,35.6,32.0,87,30.06,10.0,WNW,4.6,-,N/A,,Clear,300,2012-10-22 05:14:00
12:54 AM,35.6,30.2,81,30.07,7.0,NW,3.5,-,N/A,,Clear,320,2012-10-22 05:54:00
1:14 AM,33.8,30.2,87,30.07,7.0,NW,4.6,-,N/A,,Clear,310,2012-10-22 06:14:00
1:34 AM,33.8,28.4,81,30.08,10.0,Calm,Calm,-,N/A,,Clear,0,2012-10-22 06:34:00
1:54 AM,32.0,28.4,87,30.09,10.0,WNW,3.5,-,N/A,,Clear,290,2012-10-22 06:54:00
2:14 AM,30.2,26.6,86,30.08,7.0,Calm,Calm,-,N/A,,Clear,0,2012-10-22 07:14:00
2:34 AM,30.2,26.6,86,30.09,5.0,Calm,Calm,-,N/A,,Clear,0,2012-10-22 07:34:00
2:54 AM,30.2,26.6,86,30.09,4.0,Calm,Calm,-,N/A,,Clear,0,2012-10-22 07:54:00
3:14 AM,30.2,26.6,86,30.09,3.0,Calm,Calm,-,N/A,,Clear,0,2012-10-22 08:14:00
3:54 AM,30.2,26.6,86,30.10,10.0,NNW,3.5,-,N/A,,Clear,340,2012-10-22 08:54:00
4:14 AM,32.0,28.4,87,30.09,10.0,NNW,3.5,-,N/A,,Clear,340,2012-10-22 09:14:00
4:34 AM,30.2,26.6,86,30.09,10.0,North,3.5,-,N/A,,Clear,360,2012-10-22 09:34:00
4:54 AM,30.2,26.6,86,30.10,10.0,Calm,Calm,-,N/A,,Clear,0,2012-10-22 09:54:00
5:14 AM,28.4,24.8,86,30.10,10.0,Calm,Calm,-,N/A,,Clear,0,2012-10-22 10:14:00
5:34 AM,28.4,24.8,86,30.11,10.0,Calm,Calm,-,N/A,,Clear,0,2012-10-22 10:34:00
5:54 AM,32.0,28.4,87,30.12,10.0,Calm,Calm,-,N/A,,Clear,0,2012-10-22 10:54:00
6:14 AM,32.0,28.4,87,30.13,10.0,NW,3.5,-,N/A,,Clear,320,2012-10-22 11:14:00
6:33 AM,32.0,28.4,87,30.13,10.0,NNW,4.6,-,N/A,,Clear,330,2012-10-22 11:33:00
6:54 AM,30.2,26.6,86,30.12,10.0,North,3.5,-,N/A,,Clear,350,2012-10-22 11:54:00
7:14 AM,33.8,28.4,81,30.13,10.0,NNW,3.5,-,N/A,,Clear,340,2012-10-22 12:14:00
7:34 AM,33.8,28.4,81,30.12,10.0,North,4.6,-,N/A,,Clear,10,2012-10-22 12:34:00
8:14 AM,33.8,28.4,81,30.13,10.0,North,4.6,-,N/A,,Clear,360,2012-10-22 13:14:00
8:34 AM,33.8,30.2,87,30.13,10.0,North,5.8,-,N/A,,Clear,350,2012-10-22 13:34:00
8:54 AM,33.8,30.2,87,30.13,10.0,NNE,4.6,-,N/A,,Clear,20,2012-10-22 13:54:00
9:14 AM,39.2,33.8,81,30.15,10.0,ENE,6.9,-,N/A,,Clear,60,2012-10-22 14:14:00
9:34 AM,41.0,37.4,87,30.15,10.0,East,8.1,-,N/A,,Mostly Cloudy,80,2012-10-22 14:34:00
9:54 AM,42.8,37.4,81,30.15,10.0,ENE,8.1,-,N/A,,Scattered Clouds,60,2012-10-22 14:54:00
10:14 AM,42.8,39.2,87,30.15,10.0,ENE,9.2,-,N/A,,Clear,70,2012-10-22 15:14:00
10:34 AM,44.6,39.2,81,30.14,10.0,ENE,10.4,-,N/A,,Clear,70,2012-10-22 15:34:00
10:54 AM,42.8,39.2,87,30.14,10.0,NE,10.4,-,N/A,,Clear,50,2012-10-22 15:54:00
11:14 AM,42.8,37.4,81,30.13,10.0,ENE,10.4,-,N/A,,Clear,60,2012-10-22 16:14:00
11:34 AM,42.8,37.4,81,30.14,10.0,ENE,11.5,-,N/A,,Clear,60,2012-10-22 16:34:00
11:54 AM,44.6,39.2,81,30.14,10.0,ENE,10.4,-,N/A,,Clear,60,2012-10-22 16:54:00
12:14 PM,42.8,39.2,87,30.14,10.0,NE,9.2,-,N/A,,Clear,50,2012-10-22 17:14:00
12:34 PM,42.8,39.2,87,30.14,10.0,ENE,8.1,-,N/A,,Clear,60,2012-10-22 17:34:00
12:54 PM,42.8,39.2,87,30.13,10.0,NE,9.2,-,N/A,,Clear,50,2012-10-22 17:54:00
1:14 PM,42.8,39.2,87,30.13,10.0,NE,8.1,-,N/A,,Clear,50,2012-10-22 18:14:00
1:34 PM,42.8,39.2,87,30.13,10.0,NE,8.1,-,N/A,,Scattered Clouds,40,2012-10-22 18:34:00
1:54 PM,44.6,39.2,81,30.13,10.0,NE,9.2,-,N/A,,Scattered Clouds,40,2012-10-22 18:54:00
2:14 PM,44.6,39.2,81,30.13,10.0,NE,8.1,-,N/A,,Scattered Clouds,40,2012-10-22 19:14:00
2:34 PM,44.6,39.2,81,30.12,10.0,NE,11.5,-,N/A,,Scattered Clouds,40,2012-10-22 19:34:00
2:54 PM,44.6,39.2,81,30.11,10.0,NE,10.4,16.1,N/A,,Clear,40,2012-10-22 19:54:00
3:14 PM,44.6,39.2,81,30.10,10.0,NNE,11.5,16.1,N/A,,Scattered Clouds,30,2012-10-22 20:14:00
3:34 PM,44.6,39.2,81,30.10,10.0,NNE,10.4,-,N/A,,Scattered Clouds,30,2012-10-22 20:34:00
3:54 PM,44.6,37.4,76,30.10,10.0,NNE,8.1,-,N/A,,Scattered Clouds,30,2012-10-22 20:54:00
4:14 PM,44.6,37.4,76,30.10,10.0,NNE,9.2,-,N/A,,Scattered Clouds,30,2012-10-22 21:14:00
4:34 PM,44.6,37.4,76,30.10,10.0,NNE,10.4,18.4,N/A,,Clear,20,2012-10-22 21:34:00
4:54 PM,44.6,37.4,76,30.09,10.0,NNE,12.7,-,N/A,,Scattered Clouds,20,2012-10-22 21:54:00
5:14 PM,44.6,37.4,76,30.09,10.0,NNE,13.8,17.3,N/A,,Mostly Cloudy,30,2012-10-22 22:14:00
5:34 PM,44.6,37.4,76,30.09,10.0,NNE,10.4,-,N/A,,Overcast,30,2012-10-22 22:34:00
5:54 PM,44.6,37.4,76,30.08,10.0,NE,11.5,16.1,N/A,,Overcast,40,2012-10-22 22:54:00
6:14 PM,44.6,39.2,81,30.08,10.0,NE,11.5,16.1,N/A,,Overcast,50,2012-10-22 23:14:00
6:34 PM,44.6,39.2,81,30.07,10.0,NE,12.7,19.6,N/A,,Overcast,40,2012-10-22 23:34:00
6:54 PM,44.6,39.2,81,30.07,10.0,NE,13.8,20.7,N/A,,Overcast,40,2012-10-22 23:54:00
7:14 PM,44.6,39.2,81,30.07,10.0,NE,11.5,-,N/A,,Mostly Cloudy,40,2012-10-23 00:14:00
7:34 PM,44.6,39.2,81,30.06,10.0,NE,12.7,-,N/A,,Mostly Cloudy,50,2012-10-23 00:34:00
7:54 PM,44.6,39.2,81,30.06,10.0,NE,12.7,-,N/A,,Scattered Clouds,50,2012-10-23 00:54:00
8:54 PM,44.6,39.2,81,30.05,10.0,ENE,12.7,18.4,N/A,,Clear,60,2012-10-23 01:54:00
9:14 PM,44.6,39.2,81,30.04,10.0,ENE,11.5,-,N/A,,Clear,60,2012-10-23 02:14:00
9:34 PM,44.6,39.2,81,30.05,10.0,ENE,10.4,16.1,N/A,,Scattered Clouds,60,2012-10-23 02:34:00
9:54 PM,44.6,39.2,81,30.05,10.0,ENE,11.5,-,N/A,,Mostly Cloudy,70,2012-10-23 02:54:00
10:14 PM,44.6,39.2,81,30.04,10.0,East,10.4,-,N/A,,Mostly Cloudy,80,2012-10-23 03:14:00
10:34 PM,44.6,39.2,81,30.03,10.0,ENE,9.2,16.1,N/A,,Scattered Clouds,70,2012-10-23 03:34:00
10:54 PM,44.6,39.2,81,30.03,10.0,ENE,9.2,-,N/A,,Scattered Clouds,70,2012-10-23 03:54:00
11:14 PM,44.6,39.2,81,30.03,10.0,ENE,9.2,-,N/A,,Scattered Clouds,70,2012-10-23 04:14:00
11:33 PM,44.6,39.2,81,30.02,10.0,ENE,10.4,-,N/A,Rain,Rain,70,2012-10-23 04:33:00